IGO311 VOHS-VOBL

Flight info

Callsign IGO311
Flight time 0h 48m
Altitude 30000
Route LURGI7 LURGI Q21 TELUV TELUV7F
Aircraft A320/M-SDE3FGHIRWY/LB1

Departure

Time 2026-04-18 01:14
Airport Rajiv Gandhi International Airport (VOHS)

Arrival

Time 2026-04-18 02:02
Airport Kempegowda International Airport Bengaluru (VOBL)
Time Latitude Longitude Altitude Speed Heading
2026-04-18 00:43 17.23419 78.43123 1981 ft 0 kts
2026-04-18 01:04 17.23398 78.43123 1981 ft 4 kts
2026-04-18 01:04 17.23370 78.43123 1982 ft 4 kts
2026-04-18 01:04 17.23348 78.43124 1980 ft 4 kts 343°
2026-04-18 01:04 17.23331 78.43135 1983 ft 4 kts 270°
2026-04-18 01:05 17.23339 78.43160 1979 ft 4 kts 237°
2026-04-18 01:05 17.23351 78.43181 1980 ft 1 kts 240°
2026-04-18 01:05 17.23341 78.43166 1979 ft 4 kts 232°
2026-04-18 01:05 17.23332 78.43141 1982 ft 4 kts 263°
2026-04-18 01:06 17.23332 78.43131 1980 ft 0 kts 270°
2026-04-18 01:08 17.23332 78.43124 1979 ft 3 kts 270°
2026-04-18 01:09 17.23333 78.43077 1979 ft 10 kts 270°
2026-04-18 01:09 17.23333 78.42982 1980 ft 16 kts 269°
2026-04-18 01:09 17.23329 78.42864 1980 ft 17 kts 269°
2026-04-18 01:09 17.23328 78.42769 1984 ft 10 kts 268°
2026-04-18 01:10 17.23280 78.42727 1980 ft 10 kts 182°
2026-04-18 01:10 17.23202 78.42729 1981 ft 12 kts 178°
2026-04-18 01:10 17.23117 78.42725 1981 ft 13 kts 198°
2026-04-18 01:10 17.23078 78.42646 1981 ft 14 kts 269°
2026-04-18 01:11 17.23077 78.42527 1981 ft 21 kts 269°
2026-04-18 01:11 17.23064 78.42418 1981 ft 10 kts 272°
2026-04-18 01:11 17.23076 78.42315 1980 ft 21 kts 276°
2026-04-18 01:11 17.23021 78.42238 1980 ft 12 kts 183°
2026-04-18 01:12 17.22979 78.42237 1982 ft 0 kts 179°
2026-04-18 01:12 17.22971 78.42237 1980 ft 3 kts 179°
2026-04-18 01:12 17.22926 78.42240 1982 ft 11 kts 169°
2026-04-18 01:12 17.22873 78.42299 1980 ft 13 kts 103°
2026-04-18 01:13 17.22871 78.42340 1979 ft 0 kts 87°
2026-04-18 01:13 17.22873 78.42418 1979 ft 38 kts 90°
2026-04-18 01:13 17.22878 78.42923 1980 ft 100 kts 89°
2026-04-18 01:13 17.22892 78.43826 1980 ft 146 kts 89°
2026-04-18 01:14 17.22917 78.45017 2126 ft 172 kts 88°
2026-04-18 01:14 17.22956 78.46235 2861 ft 163 kts 91°
2026-04-18 01:14 17.22998 78.47397 3510 ft 159 kts 92°
2026-04-18 01:14 17.22831 78.48548 3778 ft 168 kts 123°
2026-04-18 01:15 17.21966 78.49410 3927 ft 183 kts 158°
2026-04-18 01:15 17.20661 78.49711 4076 ft 203 kts 172°
2026-04-18 01:15 17.19195 78.49946 4204 ft 223 kts 172°
2026-04-18 01:15 17.17579 78.50213 4351 ft 248 kts 171°
2026-04-18 01:16 17.15799 78.50511 4695 ft 267 kts 171°
2026-04-18 01:16 17.13925 78.50502 5292 ft 275 kts 194°
2026-04-18 01:16 17.12093 78.49863 5997 ft 279 kts 200°
2026-04-18 01:16 17.10258 78.49158 6669 ft 284 kts 200°
2026-04-18 01:17 17.08390 78.48433 6942 ft 287 kts 200°
2026-04-18 01:17 17.06514 78.47708 7022 ft 287 kts 199°
2026-04-18 01:17 17.04640 78.46986 7029 ft 288 kts 199°
2026-04-18 01:17 17.02762 78.46266 7031 ft 288 kts 199°
2026-04-18 01:18 17.00909 78.45557 7028 ft 288 kts 199°
2026-04-18 01:18 16.99003 78.44829 7023 ft 288 kts 199°
2026-04-18 01:18 16.97148 78.44123 7021 ft 288 kts 198°
2026-04-18 01:18 16.95204 78.43675 7026 ft 286 kts 182°
2026-04-18 01:19 16.93208 78.43791 7502 ft 289 kts 172°
2026-04-18 01:19 16.91201 78.44026 8234 ft 291 kts 173°
2026-04-18 01:19 16.89168 78.44242 8940 ft 296 kts 173°
2026-04-18 01:19 16.87110 78.44453 9635 ft 300 kts 173°
2026-04-18 01:20 16.85003 78.44670 10109 ft 312 kts 173°
2026-04-18 01:20 16.82760 78.44904 10263 ft 335 kts 173°
2026-04-18 01:20 16.80402 78.45151 10670 ft 345 kts 173°
2026-04-18 01:20 16.77989 78.45406 11243 ft 350 kts 173°
2026-04-18 01:21 16.75555 78.45667 11851 ft 354 kts 173°
2026-04-18 01:21 16.73091 78.45935 12458 ft 358 kts 173°
2026-04-18 01:21 16.70598 78.46205 13068 ft 362 kts 173°
2026-04-18 01:21 16.68077 78.46475 13685 ft 365 kts 173°
2026-04-18 01:22 16.65539 78.46746 14235 ft 368 kts 173°
2026-04-18 01:22 16.62981 78.47020 14785 ft 371 kts 173°
2026-04-18 01:22 16.60409 78.47293 15335 ft 373 kts 173°
2026-04-18 01:22 16.57820 78.47564 15872 ft 375 kts 173°
2026-04-18 01:23 16.55220 78.47838 16425 ft 377 kts 173°
2026-04-18 01:23 16.52601 78.48117 16966 ft 380 kts 173°
2026-04-18 01:23 16.49959 78.48398 17493 ft 382 kts 173°
2026-04-18 01:23 16.47306 78.48682 18018 ft 384 kts 173°
2026-04-18 01:24 16.44639 78.48965 18485 ft 386 kts 174°
2026-04-18 01:24 16.41990 78.49244 18919 ft 388 kts 174°
2026-04-18 01:24 16.39260 78.49530 19386 ft 390 kts 174°
2026-04-18 01:24 16.36553 78.49815 19850 ft 392 kts 174°
2026-04-18 01:25 16.33830 78.50106 20323 ft 393 kts 174°
2026-04-18 01:25 16.31140 78.50394 20767 ft 395 kts 174°
2026-04-18 01:25 16.28401 78.50686 21211 ft 397 kts 174°
2026-04-18 01:25 16.25643 78.50980 21670 ft 399 kts 174°
2026-04-18 01:26 16.22879 78.51274 22116 ft 400 kts 175°
2026-04-18 01:26 16.20996 78.51344 22406 ft 401 kts 182°
2026-04-18 01:26 16.18220 78.51044 22841 ft 403 kts 189°
2026-04-18 01:26 16.14546 78.50437 23426 ft 405 kts 189°
2026-04-18 01:27 16.11756 78.49986 23797 ft 407 kts 189°
2026-04-18 01:27 16.09899 78.49688 24037 ft 408 kts 189°
2026-04-18 01:27 16.07091 78.49242 24394 ft 409 kts 189°
2026-04-18 01:27 16.04272 78.48792 24761 ft 411 kts 189°
2026-04-18 01:28 16.01436 78.48338 25100 ft 412 kts 189°
2026-04-18 01:28 15.98600 78.47884 25463 ft 414 kts 189°
2026-04-18 01:28 15.94819 78.47278 25925 ft 416 kts 189°
2026-04-18 01:28 15.92880 78.46967 26161 ft 417 kts 189°
2026-04-18 01:29 15.90010 78.46507 26500 ft 419 kts 190°
2026-04-18 01:29 15.87126 78.46044 26819 ft 420 kts 190°
2026-04-18 01:29 15.84227 78.45579 27148 ft 422 kts 190°
2026-04-18 01:29 15.81355 78.45117 27466 ft 424 kts 190°
2026-04-18 01:30 15.78434 78.44648 27784 ft 425 kts 190°
2026-04-18 01:30 15.75507 78.44178 28094 ft 427 kts 190°
2026-04-18 01:30 15.72565 78.43706 28424 ft 429 kts 190°
2026-04-18 01:30 15.69609 78.43233 28755 ft 430 kts 190°
2026-04-18 01:31 15.66637 78.42757 29077 ft 433 kts 190°
2026-04-18 01:31 15.63659 78.42282 29400 ft 435 kts 190°
2026-04-18 01:31 15.60662 78.41807 29721 ft 436 kts 190°
2026-04-18 01:31 15.57652 78.41327 29880 ft 437 kts 190°
2026-04-18 01:32 15.51639 78.40368 29901 ft 437 kts 191°
2026-04-18 01:32 15.45623 78.39402 29895 ft 437 kts 191°
2026-04-18 01:33 15.39615 78.38441 29898 ft 437 kts 191°
2026-04-18 01:33 15.33640 78.37485 29873 ft 435 kts 190°
2026-04-18 01:34 15.30694 78.37019 29609 ft 424 kts 190°
2026-04-18 01:34 15.27803 78.36564 29342 ft 414 kts 190°
2026-04-18 01:34 15.24986 78.36120 29080 ft 405 kts 190°
2026-04-18 01:34 15.22234 78.35681 28818 ft 396 kts 190°
2026-04-18 01:35 15.19526 78.35246 28557 ft 388 kts 190°
2026-04-18 01:35 15.16869 78.34816 28301 ft 384 kts 190°
2026-04-18 01:35 15.14234 78.34389 28047 ft 382 kts 190°
2026-04-18 01:35 15.11642 78.33971 27798 ft 380 kts 190°
2026-04-18 01:36 15.09033 78.33553 27550 ft 379 kts 190°
2026-04-18 01:36 15.06428 78.33138 27304 ft 378 kts 190°
2026-04-18 01:36 15.03833 78.32724 27051 ft 377 kts 190°
2026-04-18 01:36 15.01243 78.32310 26804 ft 376 kts 189°
2026-04-18 01:37 14.98661 78.31897 26578 ft 374 kts 189°
2026-04-18 01:37 14.96079 78.31483 26336 ft 373 kts 189°
2026-04-18 01:37 14.93518 78.31072 26100 ft 372 kts 189°
2026-04-18 01:37 14.90966 78.30662 25871 ft 371 kts 189°
2026-04-18 01:38 14.88417 78.30254 25639 ft 370 kts 189°
2026-04-18 01:38 14.85880 78.29849 25407 ft 369 kts 189°
2026-04-18 01:38 14.83373 78.29450 25177 ft 368 kts 189°
2026-04-18 01:38 14.80843 78.29048 24953 ft 367 kts 189°
2026-04-18 01:39 14.78323 78.28648 24737 ft 366 kts 189°
2026-04-18 01:39 14.75813 78.28248 24511 ft 365 kts 189°
2026-04-18 01:39 14.73306 78.27846 24288 ft 364 kts 189°
2026-04-18 01:39 14.70804 78.27443 24068 ft 363 kts 189°
2026-04-18 01:40 14.68311 78.27043 23843 ft 362 kts 188°
2026-04-18 01:40 14.65824 78.26644 23627 ft 361 kts 188°
2026-04-18 01:40 14.63347 78.26247 23411 ft 360 kts 188°
2026-04-18 01:40 14.60906 78.25855 23147 ft 359 kts 188°
2026-04-18 01:41 14.58436 78.25456 22890 ft 358 kts 188°
2026-04-18 01:41 14.55977 78.25062 22634 ft 357 kts 188°
2026-04-18 01:41 14.53514 78.24670 22390 ft 357 kts 188°
2026-04-18 01:41 14.51067 78.24280 22131 ft 356 kts 188°
2026-04-18 01:42 14.48620 78.23889 21893 ft 355 kts 188°
2026-04-18 01:42 14.46178 78.23498 21650 ft 354 kts 188°
2026-04-18 01:42 14.43746 78.23107 21399 ft 354 kts 188°
2026-04-18 01:42 14.41318 78.22718 21156 ft 353 kts 188°
2026-04-18 01:43 14.38889 78.22330 20915 ft 352 kts 188°
2026-04-18 01:43 14.36468 78.21942 20678 ft 351 kts 188°
2026-04-18 01:43 14.34059 78.21556 20446 ft 351 kts 188°
2026-04-18 01:43 14.31674 78.21174 20212 ft 350 kts 188°
2026-04-18 01:44 14.29270 78.20788 19984 ft 350 kts 188°
2026-04-18 01:44 14.26864 78.20403 19747 ft 349 kts 187°
2026-04-18 01:44 14.24465 78.20020 19523 ft 349 kts 187°
2026-04-18 01:44 14.22071 78.19639 19294 ft 348 kts 187°
2026-04-18 01:45 14.19676 78.19259 19078 ft 348 kts 187°
2026-04-18 01:45 14.17285 78.18868 18850 ft 347 kts 190°
2026-04-18 01:45 14.14977 78.18137 18628 ft 349 kts 202°
2026-04-18 01:45 14.12776 78.17082 18408 ft 349 kts 204°
2026-04-18 01:46 14.10578 78.16022 18179 ft 348 kts 204°
2026-04-18 01:46 14.08384 78.14966 17921 ft 348 kts 204°
2026-04-18 01:46 14.06195 78.13914 17681 ft 347 kts 204°
2026-04-18 01:46 14.04009 78.12866 17426 ft 346 kts 204°
2026-04-18 01:47 14.01825 78.11818 17172 ft 345 kts 204°
2026-04-18 01:47 13.99650 78.10776 16917 ft 344 kts 204°
2026-04-18 01:47 13.97482 78.09740 16691 ft 344 kts 204°
2026-04-18 01:47 13.95314 78.08704 16449 ft 343 kts 204°
2026-04-18 01:48 13.93151 78.07669 16197 ft 342 kts 204°
2026-04-18 01:48 13.90996 78.06636 15969 ft 341 kts 204°
2026-04-18 01:48 13.88846 78.05608 15729 ft 340 kts 204°
2026-04-18 01:48 13.86707 78.04584 15492 ft 339 kts 204°
2026-04-18 01:49 13.84596 78.03572 15260 ft 338 kts 204°
2026-04-18 01:49 13.82463 78.02550 15027 ft 338 kts 204°
2026-04-18 01:49 13.80340 78.01535 14778 ft 335 kts 204°
2026-04-18 01:49 13.78224 78.00520 14400 ft 335 kts 204°
2026-04-18 01:50 13.76101 77.99503 13990 ft 337 kts 204°
2026-04-18 01:50 13.73965 77.98482 13558 ft 340 kts 204°
2026-04-18 01:50 13.71835 77.97464 13352 ft 332 kts 204°
2026-04-18 01:50 13.69763 77.96473 13245 ft 325 kts 204°
2026-04-18 01:51 13.67765 77.95517 13118 ft 307 kts 203°
2026-04-18 01:51 13.65812 77.94846 12976 ft 287 kts 186°
2026-04-18 01:51 13.63851 77.94715 12700 ft 281 kts 178°
2026-04-18 01:51 13.61897 77.94660 12444 ft 280 kts 178°
2026-04-18 01:52 13.59954 77.94599 12183 ft 278 kts 179°
2026-04-18 01:52 13.58025 77.94537 11926 ft 277 kts 179°
2026-04-18 01:52 13.56095 77.94474 11671 ft 276 kts 179°
2026-04-18 01:52 13.54182 77.94412 11417 ft 275 kts 178°
2026-04-18 01:53 13.52271 77.94352 11163 ft 274 kts 178°
2026-04-18 01:53 13.50371 77.94290 10910 ft 273 kts 178°
2026-04-18 01:53 13.48502 77.94229 10671 ft 272 kts 178°
2026-04-18 01:54 13.44737 77.94110 10166 ft 270 kts 178°
2026-04-18 01:54 13.42865 77.94053 9915 ft 269 kts 178°
2026-04-18 01:54 13.41002 77.93998 9650 ft 267 kts 178°
2026-04-18 01:54 13.39144 77.93943 9398 ft 265 kts 178°
2026-04-18 01:55 13.37312 77.93888 9158 ft 263 kts 178°
2026-04-18 01:55 13.35490 77.93833 8914 ft 260 kts 178°
2026-04-18 01:55 13.33706 77.93780 8821 ft 253 kts 178°
2026-04-18 01:55 13.31998 77.93726 8731 ft 237 kts 177°
2026-04-18 01:56 13.30435 77.93914 8604 ft 221 kts 157°
2026-04-18 01:56 13.29033 77.94518 8384 ft 217 kts 150°
2026-04-18 01:56 13.27666 77.95156 8167 ft 215 kts 150°
2026-04-18 01:56 13.26311 77.95785 7932 ft 213 kts 150°
2026-04-18 01:57 13.24964 77.96398 7734 ft 212 kts 155°
2026-04-18 01:57 13.23472 77.96647 7260 ft 231 kts 182°
2026-04-18 01:57 13.21942 77.96100 7070 ft 235 kts 212°
2026-04-18 01:57 13.20861 77.94877 6927 ft 234 kts 242°
2026-04-18 01:58 13.20482 77.93274 6709 ft 232 kts 270°
2026-04-18 01:58 13.20496 77.91620 6449 ft 232 kts 271°
2026-04-18 01:58 13.20521 77.89982 6154 ft 226 kts 271°
2026-04-18 01:58 13.20538 77.88398 5855 ft 217 kts 270°
2026-04-18 01:59 13.20553 77.86873 5580 ft 209 kts 270°
2026-04-18 01:59 13.20566 77.85430 5334 ft 202 kts 269°
2026-04-18 01:59 13.20579 77.83999 5088 ft 200 kts 269°
2026-04-18 01:59 13.20592 77.82577 4846 ft 194 kts 268°
2026-04-18 02:00 13.20605 77.81258 4616 ft 184 kts 268°
2026-04-18 02:00 13.20617 77.79969 4360 ft 179 kts 268°
2026-04-18 02:00 13.20628 77.78683 4133 ft 176 kts 268°
2026-04-18 02:00 13.20639 77.77458 3916 ft 173 kts 268°
2026-04-18 02:01 13.20650 77.76238 3713 ft 169 kts 268°
2026-04-18 02:01 13.20660 77.75048 3497 ft 166 kts 269°
2026-04-18 02:01 13.20672 77.73878 3282 ft 163 kts 270°
2026-04-18 02:01 13.20679 77.72721 3128 ft 161 kts 270°
2026-04-18 02:02 13.20684 77.71567 3028 ft 161 kts 271°
2026-04-18 02:02 13.20705 77.70562 3011 ft 117 kts 270°
2026-04-18 02:02 13.20710 77.69940 3011 ft 54 kts 271°
2026-04-18 02:02 13.20688 77.69651 3011 ft 31 kts 254°
2026-04-18 02:03 13.20627 77.69468 3015 ft 18 kts 242°
2026-04-18 02:03 13.20538 77.69481 3013 ft 17 kts 103°
2026-04-18 02:03 13.20538 77.69606 3011 ft 18 kts 91°
2026-04-18 02:03 13.20537 77.69741 3012 ft 20 kts 90°
2026-04-18 02:04 13.20536 77.69889 3011 ft 22 kts 90°
2026-04-18 02:04 13.20536 77.70048 3012 ft 23 kts 90°
2026-04-18 02:04 13.20534 77.70217 3012 ft 24 kts 90°
2026-04-18 02:04 13.20531 77.70359 3011 ft 13 kts 105°
2026-04-18 02:05 13.20454 77.70394 3011 ft 14 kts 185°
2026-04-18 02:05 13.20351 77.70392 3011 ft 16 kts 181°
2026-04-18 02:05 13.20257 77.70415 3011 ft 13 kts 126°
2026-04-18 02:05 13.20245 77.70514 3011 ft 15 kts 89°
2026-04-18 02:06 13.20246 77.70629 3011 ft 17 kts 89°
2026-04-18 02:06 13.20244 77.70733 3011 ft 14 kts 92°
2026-04-18 02:06 13.20243 77.70835 3011 ft 15 kts 89°
2026-04-18 02:06 13.20243 77.70870 3002 ft 3 kts 89°
2026-04-18 02:07 13.20234 77.70885 3011 ft 3 kts 141°
2026-04-18 02:07 13.20214 77.70881 3015 ft 4 kts 210°
2026-04-18 02:07 13.20188 77.70878 3011 ft 4 kts 182°
2026-04-18 02:07 13.20176 77.70878 3015 ft 2 kts 181°
2026-04-18 02:08 13.20172 77.70877 3013 ft 0 kts 181°